Regional Weather Roundup
Issued by NWS

Home | Current Version | Previous Version | Text Only | Print | Product List | Glossary Off
Versions: 1 2 3 4 5 6 7 8 9 10 11 12 13 14 15 16 17 18 19 20 21 22 23 24 25 26 27 28 29 30 31 32 33 34 35 36 37 38 39 40 41 42 43 44 45 46 47 48 49 50

000
ASUS43 KBIS 271110
RWRND

NORTH DAKOTA REGIONAL WEATHER ROUNDUP
NATIONAL WEATHER SERVICE BISMARCK ND
600 AM CDT WED AUG 27 2014

NOTE: "FAIR" INDICATES FEW OR NO CLOUDS BELOW 12,000 FEET WITH NO
SIGNIFICANT WEATHER AND/OR OBSTRUCTIONS TO VISIBILITY.


NDZ001>003-009>011-017-271200-
NORTHWEST NORTH DAKOTA

CITY           SKY/WX    TMP DP  RH WIND       PRES   REMARKS
WILLISTON      CLEAR     53  51  93 S3        30.11F
MINOT          CLEAR     52  49  89 S7        30.13S
MINOT AFB      CLEAR     50  50 100 S5        30.12F FOG
$$

NDZ018>021-031>035-040>046-271200-
SOUTHWEST NORTH DAKOTA

CITY           SKY/WX    TMP DP  RH WIND       PRES   REMARKS
BISMARCK       FOG       49  49 100 CALM      30.17F VSB 1/2
DICKINSON      PTCLDY    47  45  93 SE9       30.12F FOG
GARRISON         N/A     46  45  96 CALM      30.15S
HETTINGER ARPT FOG       47  46  97 CALM      30.16F VSB 1/2
$$

NDZ004>008-012>016-024-026-027-054-271200-
NORTHEAST NORTH DAKOTA

CITY           SKY/WX    TMP DP  RH WIND       PRES   REMARKS
GRAND FORKS    CLEAR     48  46  93 S3        30.16S FOG
GRND FRKS AFB  CLEAR     48  47  99 CALM      30.16S
DEVILS LAKE    CLEAR     54  46  76 CALM      30.14F
$$

NDZ022-023-025-028>030-036>039-047>053-271200-
SOUTHEAST NORTH DAKOTA

CITY           SKY/WX    TMP DP  RH WIND       PRES   REMARKS
FARGO          PTCLDY    50  49  96 E3        30.18S FOG
JAMESTOWN      FOG       50  49  96 CALM      30.17S VSB 1/2
$$




USA.gov is the U.S. government's official web portal to all federal, state and local government web resources and services.